Wind_Speed
38 32 28 30 31 28 24 23 24 23 19 19 16 13 11 8 9 7 7 8 9 5 4 5 6 7 7 12 16 17 18 16 18 15 16 16 20 20 19 18 18 19 20 22 22 22 24 25 25
37 35 30 27 27 32 24 24 24 24 20 14 10 8 7 6 8 8 10 9 8 6 7 5 7 8 7 10 13 15 15 14 12 14 14 15 14 15 17 17 16 18 19 20 21 22 25 26 26
42 38 39 28 27 30 33 28 23 21 16 12 10 10 10 12 11 8 7 6 5 3 4 6 6 6 6 10 11 11 11 12 11 9 11 11 13 16 18 19 19 20 22 24 25 25 25 25 25
37 45 40 35 28 24 28 29 26 22 20 17 16 14 13 8 6 5 5 6 5 3 2 3 4 5 6 8 8 9 11 11 10 9 8 12 12 12 12 14 17 18 19 22 23 24 25 27 28
42 34 35 37 28 25 25 26 25 22 19 17 13 12 9 8 7 7 6 7 7 6 6 6 7 8 9 11 12 11 11 10 11 11 11 10 11 12 15 17 18 18 20 22 23 23 23 25 26
43 40 38 37 34 29 26 26 26 21 18 16 15 13 12 11 10 9 10 10 10 10 11 12 12 13 14 14 14 15 15 16 17 17 17 17 19 20 20 22 23 25 26 26 27 27 28 29 29
42 39 39 37 36 32 29 26 25 23 20 18 18 17 16 15 14 13 11 10 10 12 13 13 13 12 13 14 14 15 14 15 18 19 20 22 24 26 23 22 24 27 27 27 27 28 29 30 31
46 42 40 36 34 33 30 29 27 27 24 21 20 21 21 20 18 17 16 13 11 11 10 11 12 12 12 13 12 13 15 16 17 21 25 28 29 30 29 30 30 30 29 30 29 31 31 30 28
47 46 43 39 35 35 34 33 31 29 27 25 24 25 24 23 22 21 19 16 14 13 12 12 13 14 14 13 13 15 18 19 21 25 27 30 31 32 33 33 35 37 36 36 36 36 35 35 36
50 49 44 43 41 40 38 37 35 32 30 29 29 29 27 26 26 25 21 18 16 16 16 16 16 17 17 17 20 21 23 26 29 30 34 35 36 38 37 39 41 41 40 40 40 41 42 42 42
53 53 46 47 47 43 42 40 39 37 33 34 33 32 31 30 30 29 25 21 21 20 21 23 23 22 22 24 26 28 30 32 34 36 37 40 41 41 42 43 44 45 45 46 46 46 46 46 46
59 56 52 51 50 48 45 46 42 42 40 37 37 37 35 34 34 31 30 26 26 26 27 27 28 28 29 30 32 33 35 36 37 39 42 44 45 44 45 47 51 51 51 50 50 50 50 50 51
62 61 56 54 54 51 49 48 47 47 45 43 42 42 41 39 39 36 33 32 31 31 33 34 36 37 36 36 37 38 40 41 42 43 45 47 47 50 51 54 57 59 58 56 55 55 56 56 56
67 63 61 60 58 56 56 53 51 53 51 49 48 46 46 47 45 42 39 36 36 37 39 42 44 44 44 42 44 45 46 46 47 49 50 52 53 55 57 59 61 63 60 58 59 59 59 59 58
70 68 65 62 64 61 60 59 59 57 53 53 52 51 52 53 52 50 46 45 44 44 46 47 48 47 48 50 49 49 50 51 53 57 57 60 59 59 60 63 67 65 64 65 65 63 63 62 61
72 72 68 67 68 67 67 65 65 61 58 57 56 56 57 58 57 55 53 52 51 53 54 53 52 54 53 53 54 55 53 56 59 59 60 61 62 63 64 69 69 69 70 70 71 67 64 65 67
73 72 74 74 74 72 71 71 70 65 62 60 58 60 62 63 63 58 58 58 58 61 60 61 60 59 57 58 57 58 60 59 59 61 62 62 64 65 71 72 73 73 73 72 71 69 70 72 76
80 78 78 79 80 76 74 73 74 70 67 65 64 64 64 67 69 64 64 61 65 66 64 64 64 65 62 60 59 58 60 62 64 68 68 67 66 71 74 75 76 75 73 73 73 73 75 78 80
81 82 81 80 82 78 78 75 79 73 70 69 71 69 70 71 73 69 66 65 69 68 68 68 68 69 67 64 63 64 66 66 67 72 73 74 75 75 76 78 76 76 76 79 79 81 83 83 86
80 79 76 81 84 81 82 81 80 77 76 76 74 72 73 72 74 74 69 71 69 71 71 71 71 71 69 67 68 69 71 73 74 75 75 77 81 80 81 79 80 79 80 83 87 89 89 89 89
80 80 79 80 83 79 83 82 83 82 77 76 76 76 76 75 76 76 77 74 75 74 74 74 73 71 71 72 73 74 76 79 79 78 79 82 82 86 86 84 85 88 88 88 90 92 94 92 89
80 85 86 84 83 79 79 71 67 73 77 78 81 81 81 81 78 80 80 79 79 78 77 74 74 74 76 78 79 79 81 81 82 82 83 85 89 91 91 90 91 93 94 95 96 95 96 95 93
86 89 88 85 86 88 83 78 65 69 66 68 72 73 77 79 82 82 81 79 80 81 79 79 80 80 81 83 84 84 83 82 83 88 88 87 91 94 95 96 99 99 99 100 101 96 95 96 97
89 94 92 91 92 91 83 84 73 73 74 72 74 74 79 83 84 82 82 83 83 82 83 82 82 83 85 88 87 86 84 86 94 95 94 94 97 97 99 101 103 104 103 106 103 101 100 101 105
97 96 96 98 96 90 92 92 76 80 81 79 79 78 84 83 83 83 85 86 88 88 88 87 87 87 88 89 90 90 92 98 101 100 100 101 102 104 105 106 109 110 111 109 108 106 107 108 110
107 103 104 106 104 104 104 90 83 85 85 81 82 82 85 85 86 88 90 91 91 92 91 91 91 90 92 94 95 98 104 106 106 102 103 106 108 109 111 112 113 114 114 113 111 109 111 115 119
109 109 109 113 111 110 106 95 94 91 92 89 89 90 91 91 94 96 96 96 97 96 96 96 95 94 95 98 102 106 107 108 107 108 109 111 112 115 115 117 120 117 114 113 116 119 122 124 126
110 115 115 114 114 114 104 100 90 93 97 97 95 96 98 101 102 102 102 103 102 101 101 100 100 102 103 104 107 109 110 112 112 113 114 116 119 120 120 125 124 121 122 126 126 127 129 131 135
115 116 119 120 119 117 111 109 100 98 102 101 102 103 105 108 109 108 107 109 109 110 108 107 106 107 109 110 113 114 115 117 117 117 120 122 123 124 127 129 127 127 130 131 132 135 136 137 136
124 121 119 121 118 121 121 115 105 108 113 112 109 108 112 114 114 114 114 114 115 116 115 115 114 113 115 115 116 116 118 118 119 122 125 127 129 130 131 130 131 134 133 135 139 138 137 134 133
Wind_Direction
235 237 237 237 233 227 236 241 251 261 261 260 275 271 273 280 306 308 320 326 326 343 336 349 3 12 359 8 13 18 19 32 37 34 37 34 37 37 34 30 26 19 15 14 13 10 8 7 7
233 227 230 234 237 230 240 245 255 252 258 248 250 256 273 297 301 298 300 308 318 328 328 331 339 353 352 354 354 3 11 28 22 16 23 20 11 18 18 22 19 14 11 8 5 3 3 2 358
228 225 233 234 235 234 234 241 244 245 238 242 258 264 269 283 285 280 289 294 296 290 320 327 348 1 346 345 349 355 358 5 14 358 5 3 359 354 350 355 357 356 357 356 355 353 350 350 348
233 230 234 242 246 234 232 234 241 234 229 251 269 255 261 267 268 269 282 279 289 282 263 293 315 330 321 313 327 333 339 348 348 349 343 337 356 347 335 337 341 337 336 337 338 338 339 338 338
239 231 232 240 233 239 237 237 239 242 244 253 248 249 259 262 268 273 271 282 302 299 296 289 293 301 311 315 317 324 328 329 331 335 343 339 343 335 336 336 331 329 329 328 328 326 326 325 324
234 233 233 231 234 231 229 234 240 241 237 238 245 248 257 262 267 271 277 283 289 292 296 297 300 306 309 310 315 322 329 333 335 338 341 346 349 346 343 339 338 338 334 329 326 324 322 320 316
230 231 228 227 232 233 231 233 238 240 242 242 243 251 252 260 262 262 262 264 272 280 291 298 306 310 311 315 319 324 330 338 342 345 347 343 341 338 336 335 335 333 333 329 326 327 326 324 321
232 232 230 230 232 236 239 239 239 243 245 247 249 250 252 259 262 262 257 256 262 271 283 285 294 296 302 302 313 328 334 334 333 333 331 330 329 328 326 325 325 325 323 318 315 316 315 316 320
232 234 235 236 233 241 242 244 244 248 252 255 254 255 260 263 261 261 259 260 264 271 281 291 288 295 301 300 307 318 318 319 322 322 320 319 316 316 316 316 316 317 315 315 312 311 312 312 312
233 235 236 240 240 241 241 245 247 250 252 255 258 259 261 263 262 259 254 260 266 277 280 283 290 294 295 299 301 304 307 309 311 316 319 320 318 317 315 314 313 311 309 308 306 306 307 306 305
235 236 236 240 241 243 245 247 246 249 250 252 257 261 266 266 265 264 256 258 264 271 277 278 284 288 290 292 293 296 297 301 304 310 312 316 317 316 316 315 313 310 308 306 302 300 301 300 299
236 238 236 241 243 245 248 249 249 251 252 254 256 260 264 269 268 269 265 262 268 269 273 277 280 282 284 285 290 291 294 298 300 304 308 311 315 316 316 316 315 313 311 306 301 300 299 299 298
237 238 239 241 244 247 248 250 251 252 254 257 259 262 265 266 270 271 269 269 270 271 273 277 279 281 284 283 287 289 291 294 297 302 305 306 310 316 312 312 315 314 313 310 307 304 301 300 299
237 239 240 243 244 246 248 250 251 252 253 257 260 263 266 268 270 272 270 271 272 274 275 278 279 282 285 286 289 292 292 295 296 299 302 306 307 307 310 311 311 313 311 307 305 303 301 300 300
238 239 242 244 248 248 249 250 250 253 255 257 260 264 265 268 271 273 275 275 277 277 279 280 282 285 286 288 289 291 294 295 297 300 301 304 304 305 306 309 311 311 308 308 305 303 300 299 300
240 237 239 244 246 248 250 251 251 253 255 258 262 265 267 268 271 274 276 279 279 278 277 280 281 282 284 286 289 291 290 294 296 297 300 302 303 303 305 310 310 309 308 306 305 302 300 300 300
244 244 241 243 245 246 247 249 252 255 257 260 262 263 265 267 269 272 275 276 276 275 278 280 280 281 282 283 285 291 294 291 291 295 298 300 302 302 306 307 307 308 306 304 301 299 299 301 301
245 244 244 243 244 244 245 247 251 254 257 261 263 263 265 267 270 273 273 275 273 275 278 277 278 280 285 290 291 291 290 292 295 297 299 300 301 303 305 305 306 306 304 302 301 298 299 301 301
248 248 246 244 246 245 247 247 252 254 257 259 260 262 265 267 270 271 271 271 272 274 275 278 281 284 287 291 292 290 290 291 294 298 300 301 302 302 304 305 305 305 305 302 300 299 299 300 300
248 250 253 253 248 246 247 247 252 254 255 257 261 263 262 264 267 270 270 269 271 273 275 278 280 285 289 291 290 291 292 293 295 297 298 301 301 304 307 305 304 305 306 304 301 299 299 300 300
245 248 251 252 253 252 253 251 251 254 256 260 262 263 264 263 265 267 267 270 272 274 278 281 284 286 287 288 289 290 292 294 295 296 297 298 300 304 306 304 304 304 305 306 303 299 298 300 299
245 247 247 249 252 253 251 250 257 263 264 264 263 262 263 263 265 266 268 271 275 278 280 283 284 286 287 287 288 290 290 291 293 294 296 298 300 302 303 304 305 306 304 304 304 300 298 297 297
245 247 246 249 250 250 251 250 252 257 262 264 262 264 265 265 265 266 270 273 276 278 281 282 284 284 286 287 287 287 288 289 291 293 293 295 299 302 304 305 305 305 304 304 303 300 298 296 297
247 251 249 250 251 250 253 254 248 257 256 257 262 262 264 266 269 271 273 274 275 277 279 281 282 284 285 286 286 286 285 287 291 292 293 295 300 301 302 302 304 304 304 303 301 298 297 297 296
247 247 250 251 254 253 256 254 248 254 256 256 260 261 262 265 269 272 273 274 275 278 279 280 281 282 283 282 281 282 284 289 291 292 293 297 300 301 302 303 303 303 301 303 300 297 297 297 298
247 247 249 250 250 249 252 253 254 253 254 256 259 260 265 268 269 270 271 272 275 277 278 280 281 282 282 282 281 282 287 289 291 293 294 298 300 301 302 302 302 302 301 301 299 298 298 298 299
246 248 248 248 249 250 252 254 255 256 256 256 258 260 261 264 266 267 268 271 273 274 276 278 279 280 282 282 282 285 287 289 290 292 294 296 298 299 300 301 301 301 301 301 300 300 300 299 300
243 245 249 251 251 252 251 252 254 256 256 257 257 260 262 263 265 265 266 269 271 273 275 275 276 278 280 282 282 284 286 288 290 292 294 295 297 298 298 300 300 299 299 299 300 300 299 299 298
246 247 248 249 251 254 255 254 252 255 255 256 259 261 262 263 264 266 268 269 270 271 272 274 277 279 281 282 283 285 287 289 289 290 292 294 294 298 298 299 298 299 298 299 300 300 299 298 297
246 247 250 253 255 256 256 254 259 260 260 258 259 261 262 264 266 268 270 270 271 272 274 276 276 277 279 280 282 283 285 286 287 289 290 292 294 298 299 298 297 298 299 298 299 299 298 298 297
Height
10859 10862 10865 10866 10869 10872 10874 10876 10878 10880 10881 10882 10884 10886 10887 10888 10888 10889 10889 10889 10889 10888 10888 10888 10888 10887 10887 10887 10886 10885 10884 10884 10883 10883 10882 10881 10880 10880 10879 10878 10878 10878 10877 10876 10874 10873 10871 10868 10866
10854 10858 10861 10862 10865 10868 10870 10873 10875 10876 10878 10880 10882 10884 10885 10886 10887 10887 10887 10888 10888 10888 10887 10887 10887 10887 10887 10886 10885 10884 10883 10882 10882 10882 10881 10881 10880 10879 10878 10878 10877 10876 10874 10872 10870 10868 10866 10865 10864
10850 10854 10856 10859 10862 10863 10866 10869 10871 10873 10876 10878 10880 10882 10883 10884 10885 10885 10885 10886 10885 10886 10886 10886 10886 10886 10886 10885 10885 10883 10882 10882 10881 10881 10880 10879 10879 10878 10877 10876 10874 10873 10871 10869 10867 10865 10863 10861 10860
10845 10849 10852 10855 10857 10859 10862 10865 10867 10870 10873 10875 10877 10879 10881 10882 10883 10883 10883 10884 10883 10884 10884 10884 10884 10883 10883 10882 10882 10881 10881 10880 10880 10879 10878 10878 10876 10876 10875 10874 10872 10870 10869 10867 10866 10864 10862 10860 10858
10840 10844 10847 10851 10853 10855 10858 10861 10864 10866 10869 10872 10875 10877 10878 10879 10880 10881 10881 10882 10882 10882 10882 10882 10882 10881 10881 10880 10880 10879 10879 10878 10877 10877 10876 10875 10874 10873 10872 10871 10869 10868 10866 10864 10863 10861 10859 10857 10856
10835 10838 10842 10846 10848 10851 10854 10858 10860 10863 10866 10869 10872 10874 10876 10877 10878 10878 10879 10879 10879 10880 10880 10880 10880 10880 10880 10879 10878 10878 10877 10877 10876 10875 10874 10873 10872 10872 10871 10869 10868 10866 10864 10862 10860 10858 10855 10853 10851
10829 10834 10837 10840 10844 10846 10850 10853 10856 10859 10862 10865 10867 10870 10872 10873 10874 10875 10876 10876 10877 10878 10878 10878 10878 10878 10878 10877 10877 10876 10876 10875 10874 10873 10873 10872 10871 10870 10868 10867 10865 10863 10861 10859 10856 10854 10851 10849 10846
10823 10827 10831 10836 10839 10841 10845 10848 10851 10854 10857 10860 10862 10865 10867 10869 10870 10871 10872 10873 10874 10875 10876 10876 10876 10875 10875 10875 10875 10874 10874 10873 10872 10872 10870 10869 10867 10866 10866 10864 10862 10860 10858 10856 10853 10850 10848 10845 10842
10816 10820 10825 10830 10834 10836 10839 10842 10846 10849 10852 10855 10857 10860 10863 10864 10866 10866 10868 10869 10870 10871 10872 10872 10872 10872 10872 10872 10872 10871 10871 10870 10870 10868 10867 10865 10864 10862 10861 10859 10858 10856 10854 10852 10849 10846 10843 10840 10837
10810 10813 10820 10823 10827 10828 10834 10836 10840 10844 10847 10850 10852 10855 10857 10859 10861 10861 10863 10865 10866 10866 10867 10867 10867 10868 10867 10867 10867 10866 10866 10865 10864 10863 10862 10860 10859 10857 10854 10853 10851 10849 10847 10844 10842 10839 10836 10834 10830
10803 10804 10816 10815 10817 10822 10826 10831 10833 10837 10842 10843 10846 10849 10851 10853 10855 10856 10858 10860 10861 10861 10862 10862 10863 10863 10862 10862 10861 10860 10859 10858 10858 10857 10856 10855 10853 10851 10849 10847 10845 10843 10839 10836 10833 10830 10827 10825 10822
10794 10798 10805 10808 10811 10815 10820 10821 10828 10831 10834 10838 10840 10842 10844 10846 10847 10849 10852 10855 10856 10857 10857 10857 10857 10856 10857 10856 10855 10854 10852 10851 10851 10850 10849 10847 10846 10844 10841 10839 10836 10834 10831 10827 10823 10820 10817 10814 10811
10785 10789 10797 10800 10803 10807 10811 10815 10820 10823 10826 10830 10832 10835 10836 10838 10840 10843 10846 10849 10850 10850 10850 10849 10848 10849 10850 10850 10849 10848 10846 10845 10843 10842 10841 10839 10838 10835 10833 10831 10828 10825 10821 10817 10814 10811 10807 10804 10801
10773 10781 10786 10790 10794 10799 10802 10806 10812 10812 10818 10821 10824 10827 10828 10828 10831 10834 10838 10841 10843 10843 10841 10840 10839 10839 10840 10842 10841 10839 10837 10835 10833 10832 10831 10830 10828 10826 10824 10821 10818 10816 10812 10807 10803 10799 10796 10792 10789
10765 10769 10776 10782 10783 10789 10794 10797 10799 10803 10810 10812 10815 10818 10818 10818 10821 10824 10829 10832 10834 10832 10830 10828 10830 10831 10831 10829 10830 10829 10826 10825 10823 10821 10821 10819 10817 10816 10813 10810 10807 10804 10801 10797 10792 10788 10784 10780 10778
10752 10758 10766 10770 10772 10777 10781 10784 10786 10794 10799 10803 10807 10808 10807 10807 10809 10814 10819 10822 10822 10820 10818 10820 10821 10820 10821 10820 10818 10816 10818 10816 10812 10812 10810 10808 10807 10803 10801 10799 10794 10791 10787 10784 10780 10776 10772 10768 10766
10744 10751 10754 10756 10758 10764 10769 10771 10776 10784 10789 10794 10798 10798 10798 10795 10796 10805 10809 10812 10810 10805 10808 10808 10810 10809 10810 10808 10809 10807 10802 10802 10802 10798 10799 10799 10794 10791 10789 10786 10782 10778 10774 10770 10766 10761 10757 10752 10749
10730 10732 10735 10741 10741 10749 10757 10762 10763 10773 10779 10784 10786 10787 10787 10783 10782 10795 10796 10801 10794 10795 10798 10795 10795 10795 10797 10798 10795 10794 10793 10790 10784 10782 10783 10784 10784 10780 10775 10771 10768 10764 10759 10754 10751 10746 10742 10737 10730
10712 10717 10724 10729 10727 10741 10746 10753 10747 10761 10770 10772 10772 10776 10776 10773 10769 10779 10785 10784 10780 10783 10782 10783 10783 10783 10783 10782 10781 10780 10777 10777 10775 10770 10766 10763 10762 10765 10763 10757 10753 10749 10745 10739 10734 10730 10725 10720 10712
10699 10705 10712 10714 10717 10727 10728 10738 10739 10749 10755 10757 10764 10765 10762 10762 10760 10760 10768 10765 10769 10767 10769 10771 10771 10769 10769 10769 10768 10764 10761 10760 10760 10757 10754 10748 10743 10742 10743 10740 10734 10731 10728 10723 10716 10710 10705 10701 10692
10687 10691 10695 10699 10700 10710 10716 10727 10731 10732 10745 10752 10751 10749 10748 10749 10748 10747 10746 10751 10751 10753 10756 10757 10758 10757 10756 10754 10752 10752 10748 10744 10742 10740 10736 10734 10729 10724 10722 10720 10717 10712 10708 10704 10698 10689 10683 10679 10673
10673 10671 10675 10680 10686 10698 10700 10719 10726 10728 10731 10737 10736 10734 10731 10730 10734 10730 10732 10736 10737 10739 10741 10742 10742 10742 10740 10738 10736 10734 10733 10730 10726 10724 10723 10717 10712 10707 10703 10700 10696 10691 10686 10682 10676 10671 10662 10655 10651
10653 10654 10660 10666 10671 10674 10687 10699 10720 10716 10720 10720 10718 10719 10718 10717 10715 10717 10720 10723 10723 10723 10726 10728 10727 10725 10723 10721 10719 10717 10716 10713 10710 10707 10704 10703 10699 10691 10683 10678 10674 10669 10664 10659 10653 10646 10640 10633 10627
10639 10639 10644 10648 10649 10665 10677 10678 10713 10703 10701 10704 10703 10707 10701 10697 10699 10704 10706 10706 10705 10709 10710 10712 10711 10709 10706 10704 10701 10699 10697 10695 10693 10689 10686 10684 10680 10673 10668 10662 10655 10648 10641 10636 10629 10623 10617 10610 10604
10621 10626 10627 10626 10635 10655 10653 10650 10698 10686 10688 10691 10688 10689 10682 10686 10688 10688 10688 10687 10688 10690 10691 10692 10693 10692 10690 10688 10685 10681 10678 10675 10671 10669 10665 10661 10656 10651 10645 10640 10633 10626 10619 10613 10608 10601 10593 10585 10579
10597 10601 10604 10605 10614 10623 10623 10656 10672 10671 10673 10675 10672 10672 10668 10669 10670 10669 10669 10669 10669 10669 10671 10671 10671 10670 10670 10668 10665 10661 10658 10654 10651 10647 10643 10638 10632 10627 10621 10615 10609 10603 10595 10589 10581 10575 10565 10558 10550
10584 10585 10585 10577 10591 10598 10614 10641 10651 10658 10654 10654 10654 10654 10653 10654 10650 10648 10650 10651 10650 10650 10652 10652 10650 10649 10649 10647 10644 10641 10638 10634 10630 10626 10621 10617 10611 10604 10597 10590 10584 10578 10570 10562 10553 10546 10534 10526 10516
10564 10560 10557 10567 10573 10574 10605 10612 10636 10634 10633 10633 10635 10633 10632 10630 10627 10630 10632 10632 10632 10631 10629 10627 10628 10629 10628 10626 10623 10620 10617 10613 10609 10604 10599 10592 10585 10579 10572 10565 10559 10553 10545 10533 10524 10515 10506 10496 10487
10540 10540 10540 10534 10543 10556 10581 10592 10612 10614 10609 10613 10616 10617 10613 10608 10608 10609 10613 10615 10612 10607 10604 10606 10608 10607 10605 10602 10599 10596 10593 10589 10585 10580 10575 10569 10562 10555 10548 10540 10532 10526 10514 10505 10494 10485 10475 10463 10451
10510 10520 10517 10522 10542 10535 10541 10574 10600 10594 10585 10593 10599 10596 10589 10586 10589 10591 10593 10592 10590 10586 10587 10588 10586 10584 10582 10580 10578 10575 10571 10568 10562 10557 10551 10544 10536 10528 10520 10511 10504 10494 10485 10475 10463 10452 10440 10429 10417